Tracking 35237 objects as of 6-Sep-2026
HD Live streaming from Space Station
objects crossing your sky now

COSMOS 554 DEB


COSMOS 554 DEB is no longer on orbit


NORAD ID: 6494
Int'l Code: 1973-021BD
Launch date: April 19, 1973
Source: Commonwealth of Independent States (former USSR) (CIS)
Launch site: PLESETSK MISSILE AND SPACE COMPLEX (PKMTR)
Decay date: 1973-05-27

Note: This is SATELLITE DEBRIS
Your satellite tracking list
Your tracking list is empty




NASA's NSSDC Master Catalog

Two Line Element Set (TLE):
1 06494U 73021 BD 73139.75784572  .00849694 +40331-3 +00000-0 0  9998
2 06494 073.0878 272.1807 0063598 265.2618 094.1300 16.02617324004852
Source of the keplerian elements: AFSPC